Location: Unspecified
(0.0000°N, 0.0000°E)
Time: 02:58:26
(UTC+00:00)

M-CUBED/EXP-1 PRIME - Visible Passes

Search period start: 22 January 2020 00:00
Search period end: 01 February 2020 00:00
Orbit: 429 x 668 km, 101.7° (Epoch: 21 January)

Date Brightness Start Highest point End Pass type
(mag) Time Alt. Az. Time Alt. Az. Time Alt. Az.
27 Jan ? 19:26:05 10° SW 19:27:55 12° WSW 19:29:43 10° W visible
28 Jan ? 19:20:35 10° SW 19:23:10 15° WSW 19:25:42 10° WNW visible
29 Jan ? 05:43:58 10° ENE 05:46:08 16° ESE 05:48:21 10° SE visible
29 Jan ? 19:15:18 10° SSW 19:18:25 19° WSW 19:21:26 10° WNW visible
30 Jan ? 05:39:49 10° E 05:41:21 12° ESE 05:42:55 10° SE visible
30 Jan ? 19:10:10 10° SSW 19:13:39 23° WSW 19:17:01 10° NW visible
31 Jan ? 19:05:07 10° SSW 19:08:54 28° WSW 19:12:30 10° NW visible
